owner,sensor,date,latitude,longitude,vertical_datum,wind_speed,wind_to_direction,wind_speed_of_gust,qcFlag 
WAVCIS,ioos:station:WAVCIS:CSI09:1,2010-01-01T00:00:00Z,29.1015,-89.9782,0.0,2.437,120.0,,'11111222,11111222,99999999' 
WAVCIS,ioos:station:WAVCIS:CSI09:1,2010-01-01T01:00:00Z,29.1015,-89.9782,0.0,2.165,133.0,,'11111222,11111222,99999999' 
WAVCIS,ioos:station:WAVCIS:CSI09:1,2010-01-01T02:00:00Z,29.1015,-89.9782,0.0,1.782,92.0,,'11111222,11111222,99999999' 
WAVCIS,ioos:station:WAVCIS:CSI09:1,2010-01-01T03:00:00Z,29.1015,-89.9782,0.0,2.144,88.0,,'11111222,11111222,99999999' 
WAVCIS,ioos:station:WAVCIS:CSI09:1,2010-01-01T04:00:00Z,29.1015,-89.9782,0.0,3.803,54.0,,'11111222,11111222,99999999' 
WAVCIS,ioos:station:WAVCIS:CSI09:1,2010-01-01T05:00:00Z,29.1015,-89.9782,0.0,4.078,28.0,,'11111222,11111222,99999999' 
WAVCIS,ioos:station:WAVCIS:CSI09:1,2010-01-01T06:00:00Z,29.1015,-89.9782,0.0,6.225,344.0,,'11111222,11111222,99999999' 
WAVCIS,ioos:station:WAVCIS:CSI09:1,2010-01-01T07:00:00Z,29.1015,-89.9782,0.0,5.18,43.0,,'11111222,11111222,99999999' 
WAVCIS,ioos:station:WAVCIS:CSI09:1,2010-01-01T08:00:00Z,29.1015,-89.9782,0.0,12.48,332.0,,'11111222,11111222,99999999' 
WAVCIS,ioos:station:WAVCIS:CSI09:1,2010-01-01T09:00:00Z,29.1015,-89.9782,0.0,13.57,351.0,,'11111222,11111222,99999999' 
WAVCIS,ioos:station:WAVCIS:CSI09:1,2010-01-01T10:00:00Z,29.1015,-89.9782,0.0,11.93,2.0,,'11111222,11111222,99999999' 
WAVCIS,ioos:station:WAVCIS:CSI09:1,2010-01-01T11:00:00Z,29.1015,-89.9782,0.0,11.91,3.0,,'11111222,11111222,99999999' 
WAVCIS,ioos:station:WAVCIS:CSI09:1,2010-01-01T12:00:00Z,29.1015,-89.9782,0.0,11.7,2.0,,'11111222,11111222,99999999' 
WAVCIS,ioos:station:WAVCIS:CSI09:1,2010-01-01T13:00:00Z,29.1015,-89.9782,0.0,13.96,350.0,,'11111222,11111222,99999999' 
WAVCIS,ioos:station:WAVCIS:CSI09:1,2010-01-01T14:00:00Z,29.1015,-89.9782,0.0,14.02,1.0,,'11111222,11111222,99999999' 
WAVCIS,ioos:station:WAVCIS:CSI09:1,2010-01-01T15:00:00Z,29.1015,-89.9782,0.0,12.18,7.0,,'11111222,11111222,99999999' 
WAVCIS,ioos:station:WAVCIS:CSI09:1,2010-01-01T16:00:00Z,29.1015,-89.9782,0.0,13.03,0.0,,'11111222,11111222,99999999' 
WAVCIS,ioos:station:WAVCIS:CSI09:1,2010-01-01T17:00:00Z,29.1015,-89.9782,0.0,11.96,3.0,,'11111222,11111222,99999999' 
WAVCIS,ioos:station:WAVCIS:CSI09:1,2010-01-01T18:00:00Z,29.1015,-89.9782,0.0,11.16,2.0,,'11111222,11111222,99999999' 
WAVCIS,ioos:station:WAVCIS:CSI09:1,2010-01-01T19:00:00Z,29.1015,-89.9782,0.0,10.91,349.0,,'11111222,11111222,99999999' 
WAVCIS,ioos:station:WAVCIS:CSI09:1,2010-01-01T20:00:00Z,29.1015,-89.9782,0.0,10.35,351.0,,'11111222,11111222,99999999' 
WAVCIS,ioos:station:WAVCIS:CSI09:1,2010-01-01T21:00:00Z,29.1015,-89.9782,0.0,9.81,346.0,,'11111222,11111222,99999999' 
WAVCIS,ioos:station:WAVCIS:CSI09:1,2010-01-01T22:00:00Z,29.1015,-89.9782,0.0,9.47,355.0,,'11111222,11111222,99999999' 
WAVCIS,ioos:station:WAVCIS:CSI09:1,2010-01-01T23:00:00Z,29.1015,-89.9782,0.0,8.86,350.0,,'11111222,11111222,99999999' 
WAVCIS,ioos:station:WAVCIS:CSI09:1,2010-01-02T00:00:00Z,29.1015,-89.9782,0.0,10.18,355.0,,'11111222,11111222,99999999' 
WAVCIS,ioos:station:WAVCIS:CSI09:1,2010-01-02T01:00:00Z,29.1015,-89.9782,0.0,7.95,348.0,,'11111222,11111222,99999999' 
WAVCIS,ioos:station:WAVCIS:CSI09:1,2010-01-02T02:00:00Z,29.1015,-89.9782,0.0,8.35,353.0,,'11111222,11111222,99999999' 
WAVCIS,ioos:station:WAVCIS:CSI09:1,2010-01-02T03:00:00Z,29.1015,-89.9782,0.0,9.87,2.0,,'11111222,11111222,99999999' 
WAVCIS,ioos:station:WAVCIS:CSI09:1,2010-01-02T04:00:00Z,29.1015,-89.9782,0.0,10.43,9.0,,'11111222,11111222,99999999' 
WAVCIS,ioos:station:WAVCIS:CSI09:1,2010-01-02T05:00:00Z,29.1015,-89.9782,0.0,10.08,18.0,,'11111222,11111222,99999999' 
WAVCIS,ioos:station:WAVCIS:CSI09:1,2010-01-02T06:00:00Z,29.1015,-89.9782,0.0,10.18,19.0,,'11111222,11111222,99999999' 
WAVCIS,ioos:station:WAVCIS:CSI09:1,2010-01-02T07:00:00Z,29.1015,-89.9782,0.0,10.97,23.0,,'11111222,11111222,99999999' 
WAVCIS,ioos:station:WAVCIS:CSI09:1,2010-01-02T08:00:00Z,29.1015,-89.9782,0.0,10.79,22.0,,'11111222,11111222,99999999' 
WAVCIS,ioos:station:WAVCIS:CSI09:1,2010-01-02T09:00:00Z,29.1015,-89.9782,0.0,10.99,22.0,,'11111222,11111222,99999999' 
WAVCIS,ioos:station:WAVCIS:CSI09:1,2010-01-02T10:00:00Z,29.1015,-89.9782,0.0,10.96,20.0,,'11111222,11111222,99999999' 
WAVCIS,ioos:station:WAVCIS:CSI09:1,2010-01-02T11:00:00Z,29.1015,-89.9782,0.0,10.59,21.0,,'11111222,11111222,99999999' 
WAVCIS,ioos:station:WAVCIS:CSI09:1,2010-01-02T12:00:00Z,29.1015,-89.9782,0.0,10.59,29.0,,'11111222,11111222,99999999' 
WAVCIS,ioos:station:WAVCIS:CSI09:1,2010-01-02T13:00:00Z,29.1015,-89.9782,0.0,11.16,26.0,,'11111222,11111222,99999999' 
WAVCIS,ioos:station:WAVCIS:CSI09:1,2010-01-02T14:00:00Z,29.1015,-89.9782,0.0,8.35,27.0,,'11111222,11111222,99999999' 
WAVCIS,ioos:station:WAVCIS:CSI09:1,2010-01-02T15:00:00Z,29.1015,-89.9782,0.0,6.963,21.0,,'11111222,11111222,99999999' 
WAVCIS,ioos:station:WAVCIS:CSI09:1,2010-01-02T16:00:00Z,29.1015,-89.9782,0.0,9.18,31.0,,'11111222,11111222,99999999' 
WAVCIS,ioos:station:WAVCIS:CSI09:1,2010-01-02T17:00:00Z,29.1015,-89.9782,0.0,8.58,33.0,,'11111222,11111222,99999999' 
WAVCIS,ioos:station:WAVCIS:CSI09:1,2010-01-02T18:00:00Z,29.1015,-89.9782,0.0,8.42,37.0,,'11111222,11111222,99999999' 
WAVCIS,ioos:station:WAVCIS:CSI09:1,2010-01-02T19:00:00Z,29.1015,-89.9782,0.0,8.4,34.0,,'11111222,11111222,99999999' 
WAVCIS,ioos:station:WAVCIS:CSI09:1,2010-01-02T20:00:00Z,29.1015,-89.9782,0.0,7.5,34.0,,'11111222,11111222,99999999' 
WAVCIS,ioos:station:WAVCIS:CSI09:1,2010-01-02T21:00:00Z,29.1015,-89.9782,0.0,6.588,32.0,,'11111222,11111222,99999999' 
WAVCIS,ioos:station:WAVCIS:CSI09:1,2010-01-02T22:00:00Z,29.1015,-89.9782,0.0,4.87,40.0,,'11111222,11111222,99999999' 
WAVCIS,ioos:station:WAVCIS:CSI09:1,2010-01-02T23:00:00Z,29.1015,-89.9782,0.0,4.52,32.0,,'11111222,11111222,99999999' 
WAVCIS,ioos:station:WAVCIS:CSI09:1,2010-01-03T00:00:00Z,29.1015,-89.9782,0.0,4.77,35.0,,'11111222,11111222,99999999' 
WAVCIS,ioos:station:WAVCIS:CSI09:1,2010-01-03T01:00:00Z,29.1015,-89.9782,0.0,5.36,30.0,,'11111222,11111222,99999999' 
WAVCIS,ioos:station:WAVCIS:CSI09:1,2010-01-03T02:00:00Z,29.1015,-89.9782,0.0,4.22,34.0,,'11111222,11111222,99999999' 
WAVCIS,ioos:station:WAVCIS:CSI09:1,2010-01-03T03:00:00Z,29.1015,-89.9782,0.0,3.755,32.0,,'11111222,11111222,99999999' 
WAVCIS,ioos:station:WAVCIS:CSI09:1,2010-01-03T04:00:00Z,29.1015,-89.9782,0.0,4.947,26.0,,'11111222,11111222,99999999' 
WAVCIS,ioos:station:WAVCIS:CSI09:1,2010-01-03T05:00:00Z,29.1015,-89.9782,0.0,5.206,36.0,,'11111222,11111222,99999999' 
WAVCIS,ioos:station:WAVCIS:CSI09:1,2010-01-03T06:00:00Z,29.1015,-89.9782,0.0,5.37,33.0,,'11111222,11111222,99999999' 
WAVCIS,ioos:station:WAVCIS:CSI09:1,2010-01-03T07:00:00Z,29.1015,-89.9782,0.0,6.065,36.0,,'11111222,11111222,99999999' 
WAVCIS,ioos:station:WAVCIS:CSI09:1,2010-01-03T08:00:00Z,29.1015,-89.9782,0.0,6.843,40.0,,'11111222,11111222,99999999' 
WAVCIS,ioos:station:WAVCIS:CSI09:1,2010-01-03T09:00:00Z,29.1015,-89.9782,0.0,6.513,45.0,,'11111222,11111222,99999999' 
WAVCIS,ioos:station:WAVCIS:CSI09:1,2010-01-03T10:00:00Z,29.1015,-89.9782,0.0,8.34,33.0,,'11111222,11111222,99999999' 
WAVCIS,ioos:station:WAVCIS:CSI09:1,2010-01-03T11:00:00Z,29.1015,-89.9782,0.0,8.61,40.0,,'11111222,11111222,99999999' 
WAVCIS,ioos:station:WAVCIS:CSI09:1,2010-01-03T12:00:00Z,29.1015,-89.9782,0.0,8.43,43.0,,'11111222,11111222,99999999' 
WAVCIS,ioos:station:WAVCIS:CSI09:1,2010-01-03T13:00:00Z,29.1015,-89.9782,0.0,8.74,41.0,,'11111222,11111222,99999999' 
WAVCIS,ioos:station:WAVCIS:CSI09:1,2010-01-03T14:00:00Z,29.1015,-89.9782,0.0,8.78,40.0,,'11111222,11111222,99999999' 
WAVCIS,ioos:station:WAVCIS:CSI09:1,2010-01-03T15:00:00Z,29.1015,-89.9782,0.0,10.04,43.0,,'11111222,11111222,99999999' 
WAVCIS,ioos:station:WAVCIS:CSI09:1,2010-01-03T16:00:00Z,29.1015,-89.9782,0.0,8.9,53.0,,'11111222,11111222,99999999' 
WAVCIS,ioos:station:WAVCIS:CSI09:1,2010-01-03T17:00:00Z,29.1015,-89.9782,0.0,9.21,50.0,,'11111222,11111222,99999999' 
WAVCIS,ioos:station:WAVCIS:CSI09:1,2010-01-03T18:00:00Z,29.1015,-89.9782,0.0,7.48,45.0,,'11111222,11111222,99999999' 
WAVCIS,ioos:station:WAVCIS:CSI09:1,2010-01-03T19:00:00Z,29.1015,-89.9782,0.0,8.19,40.0,,'11111222,11111222,99999999' 
WAVCIS,ioos:station:WAVCIS:CSI09:1,2010-01-03T20:00:00Z,29.1015,-89.9782,0.0,8.65,35.0,,'11111222,11111222,99999999' 
WAVCIS,ioos:station:WAVCIS:CSI09:1,2010-01-03T21:00:00Z,29.1015,-89.9782,0.0,8.05,41.0,,'11111222,11111222,99999999' 
WAVCIS,ioos:station:WAVCIS:CSI09:1,2010-01-03T22:00:00Z,29.1015,-89.9782,0.0,7.48,33.0,,'11111222,11111222,99999999' 
WAVCIS,ioos:station:WAVCIS:CSI09:1,2010-01-03T23:00:00Z,29.1015,-89.9782,0.0,6.765,34.0,,'11111222,11111222,99999999' 
WAVCIS,ioos:station:WAVCIS:CSI09:1,2010-01-04T00:00:00Z,29.1015,-89.9782,0.0,7.39,34.0,,'11111222,11111222,99999999' 
WAVCIS,ioos:station:WAVCIS:CSI09:1,2010-01-04T01:00:00Z,29.1015,-89.9782,0.0,6.852,24.0,,'11111222,11111222,99999999' 
WAVCIS,ioos:station:WAVCIS:CSI09:1,2010-01-04T02:00:00Z,29.1015,-89.9782,0.0,6.175,22.0,,'11111222,11111222,99999999' 
WAVCIS,ioos:station:WAVCIS:CSI09:1,2010-01-04T03:00:00Z,29.1015,-89.9782,0.0,5.854,25.0,,'11111222,11111222,99999999' 
WAVCIS,ioos:station:WAVCIS:CSI09:1,2010-01-04T04:00:00Z,29.1015,-89.9782,0.0,6.629,18.0,,'11111222,11111222,99999999' 
WAVCIS,ioos:station:WAVCIS:CSI09:1,2010-01-04T05:00:00Z,29.1015,-89.9782,0.0,7.13,25.0,,'11111222,11111222,99999999' 
WAVCIS,ioos:station:WAVCIS:CSI09:1,2010-01-04T06:00:00Z,29.1015,-89.9782,0.0,8.31,24.0,,'11111222,11111222,99999999' 
WAVCIS,ioos:station:WAVCIS:CSI09:1,2010-01-04T07:00:00Z,29.1015,-89.9782,0.0,7.19,41.0,,'11111222,11111222,99999999' 
WAVCIS,ioos:station:WAVCIS:CSI09:1,2010-01-04T08:00:00Z,29.1015,-89.9782,0.0,8.04,31.0,,'11111222,11111222,99999999' 
WAVCIS,ioos:station:WAVCIS:CSI09:1,2010-01-04T09:00:00Z,29.1015,-89.9782,0.0,8.23,36.0,,'11111222,11111222,99999999' 
WAVCIS,ioos:station:WAVCIS:CSI09:1,2010-01-04T10:00:00Z,29.1015,-89.9782,0.0,8.22,19.0,,'11111222,11111222,99999999' 
WAVCIS,ioos:station:WAVCIS:CSI09:1,2010-01-04T11:00:00Z,29.1015,-89.9782,0.0,7.42,20.0,,'11111222,11111222,99999999' 
WAVCIS,ioos:station:WAVCIS:CSI09:1,2010-01-04T12:00:00Z,29.1015,-89.9782,0.0,6.373,18.0,,'11111222,11111222,99999999' 
WAVCIS,ioos:station:WAVCIS:CSI09:1,2010-01-04T13:00:00Z,29.1015,-89.9782,0.0,7.07,14.0,,'11111222,11111222,99999999' 
WAVCIS,ioos:station:WAVCIS:CSI09:1,2010-01-04T14:00:00Z,29.1015,-89.9782,0.0,7.63,23.0,,'11111222,11111222,99999999' 
WAVCIS,ioos:station:WAVCIS:CSI09:1,2010-01-04T15:00:00Z,29.1015,-89.9782,0.0,7.49,20.0,,'11111222,11111222,99999999' 
WAVCIS,ioos:station:WAVCIS:CSI09:1,2010-01-04T16:00:00Z,29.1015,-89.9782,0.0,6.178,23.0,,'11111222,11111222,99999999' 
WAVCIS,ioos:station:WAVCIS:CSI09:1,2010-01-04T17:00:00Z,29.1015,-89.9782,0.0,5.411,11.0,,'11111222,11111222,99999999' 
WAVCIS,ioos:station:WAVCIS:CSI09:1,2010-01-04T18:00:00Z,29.1015,-89.9782,0.0,4.653,350.0,,'11111222,11111222,99999999' 
WAVCIS,ioos:station:WAVCIS:CSI09:1,2010-01-04T19:00:00Z,29.1015,-89.9782,0.0,5.2,341.0,,'11111222,11111222,99999999' 
WAVCIS,ioos:station:WAVCIS:CSI09:1,2010-01-04T20:00:00Z,29.1015,-89.9782,0.0,5.889,343.0,,'11111222,11111222,99999999' 
WAVCIS,ioos:station:WAVCIS:CSI09:1,2010-01-04T21:00:00Z,29.1015,-89.9782,0.0,7.98,343.0,,'11111222,11111222,99999999' 
WAVCIS,ioos:station:WAVCIS:CSI09:1,2010-01-04T22:00:00Z,29.1015,-89.9782,0.0,10.17,344.0,,'11111222,11111222,99999999' 
WAVCIS,ioos:station:WAVCIS:CSI09:1,2010-01-04T23:00:00Z,29.1015,-89.9782,0.0,10.43,332.0,,'11111222,11111222,99999999' 
WAVCIS,ioos:station:WAVCIS:CSI09:1,2010-01-05T00:00:00Z,29.1015,-89.9782,0.0,12.31,323.0,,'11111222,11111222,99999999' 
WAVCIS,ioos:station:WAVCIS:CSI09:1,2010-01-05T01:00:00Z,29.1015,-89.9782,0.0,10.63,328.0,,'11111222,11111222,99999999' 
WAVCIS,ioos:station:WAVCIS:CSI09:1,2010-01-05T02:00:00Z,29.1015,-89.9782,0.0,10.93,342.0,,'11111222,11111222,99999999' 
WAVCIS,ioos:station:WAVCIS:CSI09:1,2010-01-05T03:00:00Z,29.1015,-89.9782,0.0,11.24,351.0,,'11111222,11111222,99999999' 
WAVCIS,ioos:station:WAVCIS:CSI09:1,2010-01-05T04:00:00Z,29.1015,-89.9782,0.0,11.38,337.0,,'11111222,11111222,99999999' 
WAVCIS,ioos:station:WAVCIS:CSI09:1,2010-01-05T05:00:00Z,29.1015,-89.9782,0.0,11.29,339.0,,'11111222,11111222,99999999' 
WAVCIS,ioos:station:WAVCIS:CSI09:1,2010-01-05T06:00:00Z,29.1015,-89.9782,0.0,11.35,336.0,,'11111222,11111222,99999999' 
WAVCIS,ioos:station:WAVCIS:CSI09:1,2010-01-05T07:00:00Z,29.1015,-89.9782,0.0,10.49,355.0,,'11111222,11111222,99999999' 
WAVCIS,ioos:station:WAVCIS:CSI09:1,2010-01-05T08:00:00Z,29.1015,-89.9782,0.0,8.87,348.0,,'11111222,11111222,99999999' 
WAVCIS,ioos:station:WAVCIS:CSI09:1,2010-01-05T09:00:00Z,29.1015,-89.9782,0.0,10.04,346.0,,'11111222,11111222,99999999' 
WAVCIS,ioos:station:WAVCIS:CSI09:1,2010-01-05T10:00:00Z,29.1015,-89.9782,0.0,12.1,350.0,,'11111222,11111222,99999999' 
WAVCIS,ioos:station:WAVCIS:CSI09:1,2010-01-05T11:00:00Z,29.1015,-89.9782,0.0,12.43,354.0,,'11111222,11111222,99999999' 
WAVCIS,ioos:station:WAVCIS:CSI09:1,2010-01-05T12:00:00Z,29.1015,-89.9782,0.0,12.07,3.0,,'11111222,11111222,99999999' 
WAVCIS,ioos:station:WAVCIS:CSI09:1,2010-01-05T13:00:00Z,29.1015,-89.9782,0.0,11.9,9.0,,'11111222,11111222,99999999' 
WAVCIS,ioos:station:WAVCIS:CSI09:1,2010-01-05T14:00:00Z,29.1015,-89.9782,0.0,10.91,3.0,,'11111222,11111222,99999999' 
WAVCIS,ioos:station:WAVCIS:CSI09:1,2010-01-05T15:00:00Z,29.1015,-89.9782,0.0,9.48,2.0,,'11111222,11111222,99999999' 
WAVCIS,ioos:station:WAVCIS:CSI09:1,2010-01-05T16:00:00Z,29.1015,-89.9782,0.0,9.27,6.0,,'11111222,11111222,99999999' 
WAVCIS,ioos:station:WAVCIS:CSI09:1,2010-01-05T17:00:00Z,29.1015,-89.9782,0.0,8.39,11.0,,'11111222,11111222,99999999' 
WAVCIS,ioos:station:WAVCIS:CSI09:1,2010-01-05T18:00:00Z,29.1015,-89.9782,0.0,6.775,357.0,,'11111222,11111222,99999999' 
WAVCIS,ioos:station:WAVCIS:CSI09:1,2010-01-05T19:00:00Z,29.1015,-89.9782,0.0,4.444,335.0,,'11111222,11111222,99999999' 
WAVCIS,ioos:station:WAVCIS:CSI09:1,2010-01-05T20:00:00Z,29.1015,-89.9782,0.0,4.787,329.0,,'11111222,11111222,99999999' 
WAVCIS,ioos:station:WAVCIS:CSI09:1,2010-01-05T21:00:00Z,29.1015,-89.9782,0.0,5.175,323.0,,'11111222,11111222,99999999' 
WAVCIS,ioos:station:WAVCIS:CSI09:1,2010-01-05T22:00:00Z,29.1015,-89.9782,0.0,3.607,328.0,,'11111222,11111222,99999999' 
WAVCIS,ioos:station:WAVCIS:CSI09:1,2010-01-05T23:00:00Z,29.1015,-89.9782,0.0,4.816,316.0,,'11111222,11111222,99999999' 
WAVCIS,ioos:station:WAVCIS:CSI09:1,2010-01-06T00:00:00Z,29.1015,-89.9782,0.0,3.304,339.0,,'11111222,11111222,99999999' 
WAVCIS,ioos:station:WAVCIS:CSI09:1,2010-01-06T01:00:00Z,29.1015,-89.9782,0.0,3.797,316.0,,'11111222,11111222,99999999' 
WAVCIS,ioos:station:WAVCIS:CSI09:1,2010-01-06T02:00:00Z,29.1015,-89.9782,0.0,3.463,315.0,,'11111222,11111222,99999999' 
WAVCIS,ioos:station:WAVCIS:CSI09:1,2010-01-06T03:00:00Z,29.1015,-89.9782,0.0,4.005,302.0,,'11111222,11111222,99999999' 
WAVCIS,ioos:station:WAVCIS:CSI09:1,2010-01-06T04:00:00Z,29.1015,-89.9782,0.0,5.038,314.0,,'11111222,11111222,99999999' 
WAVCIS,ioos:station:WAVCIS:CSI09:1,2010-01-06T05:00:00Z,29.1015,-89.9782,0.0,5.63,314.0,,'11111222,11111222,99999999' 
WAVCIS,ioos:station:WAVCIS:CSI09:1,2010-01-06T06:00:00Z,29.1015,-89.9782,0.0,5.702,317.0,,'11111222,11111222,99999999' 
WAVCIS,ioos:station:WAVCIS:CSI09:1,2010-01-06T07:00:00Z,29.1015,-89.9782,0.0,5.332,340.0,,'11111222,11111222,99999999' 
WAVCIS,ioos:station:WAVCIS:CSI09:1,2010-01-06T08:00:00Z,29.1015,-89.9782,0.0,6.071,351.0,,'11111222,11111222,99999999' 
WAVCIS,ioos:station:WAVCIS:CSI09:1,2010-01-06T09:00:00Z,29.1015,-89.9782,0.0,7.01,13.0,,'11111222,11111222,99999999' 
WAVCIS,ioos:station:WAVCIS:CSI09:1,2010-01-06T10:00:00Z,29.1015,-89.9782,0.0,6.503,18.0,,'11111222,11111222,99999999' 
WAVCIS,ioos:station:WAVCIS:CSI09:1,2010-01-06T11:00:00Z,29.1015,-89.9782,0.0,7.2,23.0,,'11111222,11111222,99999999' 
WAVCIS,ioos:station:WAVCIS:CSI09:1,2010-01-06T12:00:00Z,29.1015,-89.9782,0.0,7.51,25.0,,'11111222,11111222,99999999' 
WAVCIS,ioos:station:WAVCIS:CSI09:1,2010-01-06T13:00:00Z,29.1015,-89.9782,0.0,7.31,30.0,,'11111222,11111222,99999999' 
WAVCIS,ioos:station:WAVCIS:CSI09:1,2010-01-06T14:00:00Z,29.1015,-89.9782,0.0,5.955,39.0,,'11111222,11111222,99999999' 
WAVCIS,ioos:station:WAVCIS:CSI09:1,2010-01-06T15:00:00Z,29.1015,-89.9782,0.0,7.01,46.0,,'11111222,11111222,99999999' 
WAVCIS,ioos:station:WAVCIS:CSI09:1,2010-01-06T16:00:00Z,29.1015,-89.9782,0.0,6.038,45.0,,'11111222,11111222,99999999' 
WAVCIS,ioos:station:WAVCIS:CSI09:1,2010-01-06T17:00:00Z,29.1015,-89.9782,0.0,6.51,39.0,,'11111222,11111222,99999999' 
WAVCIS,ioos:station:WAVCIS:CSI09:1,2010-01-06T18:00:00Z,29.1015,-89.9782,0.0,6.564,25.0,,'11111222,11111222,99999999' 
WAVCIS,ioos:station:WAVCIS:CSI09:1,2010-01-06T19:00:00Z,29.1015,-89.9782,0.0,3.723,31.0,,'11111222,11111222,99999999' 
WAVCIS,ioos:station:WAVCIS:CSI09:1,2010-01-06T20:00:00Z,29.1015,-89.9782,0.0,4.345,36.0,,'11111222,11111222,99999999' 
WAVCIS,ioos:station:WAVCIS:CSI09:1,2010-01-06T21:00:00Z,29.1015,-89.9782,0.0,3.619,46.0,,'11111222,11111222,99999999' 
WAVCIS,ioos:station:WAVCIS:CSI09:1,2010-01-06T22:00:00Z,29.1015,-89.9782,0.0,4.076,67.0,,'11111222,11111222,99999999' 
WAVCIS,ioos:station:WAVCIS:CSI09:1,2010-01-06T23:00:00Z,29.1015,-89.9782,0.0,4.292,73.0,,'11111222,11111222,99999999' 
WAVCIS,ioos:station:WAVCIS:CSI09:1,2010-01-07T00:00:00Z,29.1015,-89.9782,0.0,5.178,75.0,,'11111222,11111222,99999999' 
WAVCIS,ioos:station:WAVCIS:CSI09:1,2010-01-07T01:00:00Z,29.1015,-89.9782,0.0,5.955,77.0,,'11111222,11111222,99999999' 
WAVCIS,ioos:station:WAVCIS:CSI09:1,2010-01-07T02:00:00Z,29.1015,-89.9782,0.0,5.06,94.0,,'11111222,11111222,99999999' 
WAVCIS,ioos:station:WAVCIS:CSI09:1,2010-01-07T03:00:00Z,29.1015,-89.9782,0.0,5.724,102.0,,'11111222,11111222,99999999' 
WAVCIS,ioos:station:WAVCIS:CSI09:1,2010-01-07T04:00:00Z,29.1015,-89.9782,0.0,6.105,123.0,,'11111222,11111222,99999999' 
WAVCIS,ioos:station:WAVCIS:CSI09:1,2010-01-07T05:00:00Z,29.1015,-89.9782,0.0,6.719,126.0,,'11111222,11111222,99999999' 
WAVCIS,ioos:station:WAVCIS:CSI09:1,2010-01-07T06:00:00Z,29.1015,-89.9782,0.0,7.51,129.0,,'11111222,11111222,99999999' 
WAVCIS,ioos:station:WAVCIS:CSI09:1,2010-01-07T07:00:00Z,29.1015,-89.9782,0.0,6.269,125.0,,'11111222,11111222,99999999' 
WAVCIS,ioos:station:WAVCIS:CSI09:1,2010-01-07T08:00:00Z,29.1015,-89.9782,0.0,2.936,72.0,,'11111222,11111222,99999999' 
WAVCIS,ioos:station:WAVCIS:CSI09:1,2010-01-07T09:00:00Z,29.1015,-89.9782,0.0,4.05,71.0,,'11111222,11111222,99999999' 
WAVCIS,ioos:station:WAVCIS:CSI09:1,2010-01-07T10:00:00Z,29.1015,-89.9782,0.0,3.997,76.0,,'11111222,11111222,99999999' 
WAVCIS,ioos:station:WAVCIS:CSI09:1,2010-01-07T11:00:00Z,29.1015,-89.9782,0.0,5.593,76.0,,'11111222,11111222,99999999' 
WAVCIS,ioos:station:WAVCIS:CSI09:1,2010-01-07T12:00:00Z,29.1015,-89.9782,0.0,5.089,100.0,,'11111222,11111222,99999999' 
WAVCIS,ioos:station:WAVCIS:CSI09:1,2010-01-07T13:00:00Z,29.1015,-89.9782,0.0,6.42,116.0,,'11111222,11111222,99999999' 
WAVCIS,ioos:station:WAVCIS:CSI09:1,2010-01-07T14:00:00Z,29.1015,-89.9782,0.0,4.889,125.0,,'11111222,11111222,99999999' 
WAVCIS,ioos:station:WAVCIS:CSI09:1,2010-01-07T15:00:00Z,29.1015,-89.9782,0.0,6.278,161.0,,'11111222,11111222,99999999' 
WAVCIS,ioos:station:WAVCIS:CSI09:1,2010-01-07T16:00:00Z,29.1015,-89.9782,0.0,8.95,180.0,,'11111222,11111222,99999999' 
WAVCIS,ioos:station:WAVCIS:CSI09:1,2010-01-07T17:00:00Z,29.1015,-89.9782,0.0,8.67,175.0,,'11111222,11111222,99999999' 
WAVCIS,ioos:station:WAVCIS:CSI09:1,2010-01-07T18:00:00Z,29.1015,-89.9782,0.0,4.972,185.0,,'11111222,11111222,99999999' 
WAVCIS,ioos:station:WAVCIS:CSI09:1,2010-01-07T19:00:00Z,29.1015,-89.9782,0.0,3.517,199.0,,'11111222,11111222,99999999' 
WAVCIS,ioos:station:WAVCIS:CSI09:1,2010-01-07T20:00:00Z,29.1015,-89.9782,0.0,3.087,199.0,,'11111222,11111222,99999999' 
WAVCIS,ioos:station:WAVCIS:CSI09:1,2010-01-07T21:00:00Z,29.1015,-89.9782,0.0,3.31,206.0,,'11111222,11111222,99999999' 
WAVCIS,ioos:station:WAVCIS:CSI09:1,2010-01-07T22:00:00Z,29.1015,-89.9782,0.0,6.739,0.0,,'11111222,11111222,99999999' 
WAVCIS,ioos:station:WAVCIS:CSI09:1,2010-01-07T23:00:00Z,29.1015,-89.9782,0.0,9.6,16.0,,'11111222,11111222,99999999' 
WAVCIS,ioos:station:WAVCIS:CSI09:1,2010-01-08T00:00:00Z,29.1015,-89.9782,0.0,11.93,4.0,,'11111222,11111222,99999999' 
WAVCIS,ioos:station:WAVCIS:CSI09:1,2010-01-08T01:00:00Z,29.1015,-89.9782,0.0,13.49,3.0,,'11111222,11111222,99999999' 
WAVCIS,ioos:station:WAVCIS:CSI09:1,2010-01-08T02:00:00Z,29.1015,-89.9782,0.0,13.39,0.0,,'11111222,11111222,99999999' 
WAVCIS,ioos:station:WAVCIS:CSI09:1,2010-01-08T03:00:00Z,29.1015,-89.9782,0.0,15.3,7.0,,'11111222,11111222,99999999' 
WAVCIS,ioos:station:WAVCIS:CSI09:1,2010-01-08T04:00:00Z,29.1015,-89.9782,0.0,15.05,356.0,,'11111222,11111222,99999999' 
WAVCIS,ioos:station:WAVCIS:CSI09:1,2010-01-08T05:00:00Z,29.1015,-89.9782,0.0,15.0,349.0,,'11111222,11111222,99999999' 
WAVCIS,ioos:station:WAVCIS:CSI09:1,2010-01-08T06:00:00Z,29.1015,-89.9782,0.0,16.66,358.0,,'11111222,11111222,99999999' 
WAVCIS,ioos:station:WAVCIS:CSI09:1,2010-01-08T07:00:00Z,29.1015,-89.9782,0.0,14.64,0.0,,'11111222,11111222,99999999' 
WAVCIS,ioos:station:WAVCIS:CSI09:1,2010-01-08T08:00:00Z,29.1015,-89.9782,0.0,15.19,0.0,,'11111222,11111222,99999999' 
WAVCIS,ioos:station:WAVCIS:CSI09:1,2010-01-08T09:00:00Z,29.1015,-89.9782,0.0,14.31,1.0,,'11111222,11111222,99999999' 
WAVCIS,ioos:station:WAVCIS:CSI09:1,2010-01-08T10:00:00Z,29.1015,-89.9782,0.0,15.21,2.0,,'11111222,11111222,99999999' 
WAVCIS,ioos:station:WAVCIS:CSI09:1,2010-01-08T11:00:00Z,29.1015,-89.9782,0.0,14.93,359.0,,'11111222,11111222,99999999' 
WAVCIS,ioos:station:WAVCIS:CSI09:1,2010-01-08T12:00:00Z,29.1015,-89.9782,0.0,15.42,356.0,,'11111222,11111222,99999999' 
WAVCIS,ioos:station:WAVCIS:CSI09:1,2010-01-08T13:00:00Z,29.1015,-89.9782,0.0,13.7,1.0,,'11111222,11111222,99999999' 
WAVCIS,ioos:station:WAVCIS:CSI09:1,2010-01-08T14:00:00Z,29.1015,-89.9782,0.0,14.02,1.0,,'11111222,11111222,99999999' 
WAVCIS,ioos:station:WAVCIS:CSI09:1,2010-01-08T15:00:00Z,29.1015,-89.9782,0.0,13.01,355.0,,'11111222,11111222,99999999' 
WAVCIS,ioos:station:WAVCIS:CSI09:1,2010-01-08T16:00:00Z,29.1015,-89.9782,0.0,12.24,3.0,,'11111222,11111222,99999999' 
WAVCIS,ioos:station:WAVCIS:CSI09:1,2010-01-08T17:00:00Z,29.1015,-89.9782,0.0,11.81,350.0,,'11111222,11111222,99999999' 
WAVCIS,ioos:station:WAVCIS:CSI09:1,2010-01-08T18:00:00Z,29.1015,-89.9782,0.0,10.56,353.0,,'11111222,11111222,99999999' 
WAVCIS,ioos:station:WAVCIS:CSI09:1,2010-01-08T19:00:00Z,29.1015,-89.9782,0.0,10.01,340.0,,'11111222,11111222,99999999' 
WAVCIS,ioos:station:WAVCIS:CSI09:1,2010-01-08T20:00:00Z,29.1015,-89.9782,0.0,9.27,340.0,,'11111222,11111222,99999999' 
WAVCIS,ioos:station:WAVCIS:CSI09:1,2010-01-08T21:00:00Z,29.1015,-89.9782,0.0,11.31,347.0,,'11111222,11111222,99999999' 
WAVCIS,ioos:station:WAVCIS:CSI09:1,2010-01-08T22:00:00Z,29.1015,-89.9782,0.0,11.46,350.0,,'11111222,11111222,99999999' 
WAVCIS,ioos:station:WAVCIS:CSI09:1,2010-01-08T23:00:00Z,29.1015,-89.9782,0.0,11.43,350.0,,'11111222,11111222,99999999' 
WAVCIS,ioos:station:WAVCIS:CSI09:1,2010-01-09T00:00:00Z,29.1015,-89.9782,0.0,12.88,355.0,,'11111222,11111222,99999999' 
WAVCIS,ioos:station:WAVCIS:CSI09:1,2010-01-09T01:00:00Z,29.1015,-89.9782,0.0,11.37,359.0,,'11111222,11111222,99999999' 
WAVCIS,ioos:station:WAVCIS:CSI09:1,2010-01-09T02:00:00Z,29.1015,-89.9782,0.0,12.01,352.0,,'11111222,11111222,99999999' 
WAVCIS,ioos:station:WAVCIS:CSI09:1,2010-01-09T03:00:00Z,29.1015,-89.9782,0.0,10.27,351.0,,'11111222,11111222,99999999' 
WAVCIS,ioos:station:WAVCIS:CSI09:1,2010-01-09T04:00:00Z,29.1015,-89.9782,0.0,11.04,352.0,,'11111222,11111222,99999999' 
WAVCIS,ioos:station:WAVCIS:CSI09:1,2010-01-09T05:00:00Z,29.1015,-89.9782,0.0,10.94,348.0,,'11111222,11111222,99999999' 
WAVCIS,ioos:station:WAVCIS:CSI09:1,2010-01-09T06:00:00Z,29.1015,-89.9782,0.0,10.82,351.0,,'11111222,11111222,99999999' 
WAVCIS,ioos:station:WAVCIS:CSI09:1,2010-01-09T07:00:00Z,29.1015,-89.9782,0.0,11.28,345.0,,'11111222,11111222,99999999' 